Hourly Data Report for September 26, 2017

All times are specified in Local Standard Time (LST). Add 1 hour to adjust for Daylight Saving Time where and when it is observed.

MISCOU ISLAND (AUT)
NEW BRUNSWICK

48°00'32.002" N
64°29'39.008" W
4.00 m
8103050
71719
WMI

Download Data

Hourly Data (September 2017)
Hourly Data Report for September 26, 2017
Temp Definition
°C
Dew Point Temp Definition
°C
Rel Hum Definition
%
Wind Dir Definition
10's deg

Wind Spd Definition
km/h
Visibility Definition
km
Stn Press Definition
kPa
Hmdx Definition


Wind Chill Definition


Weather Definition


TIME
00:00 15.1 14.3 95 25 14   100.91     LegendNANA
01:00 14.8 13.9 94 24 15   100.91     LegendNANA
02:00 14.8 13.9 94 23 17   100.87     LegendNANA
03:00 15.4 14.5 94 22 19   100.82     LegendNANA
04:00 16.7 15.4 92 23 22   100.81     LegendNANA
05:00 16.7 15.0 90 23 21   100.80     LegendNANA
06:00 17.3 15.6 89 24 24   100.82     LegendNANA
07:00 17.6 15.6 89 25 21   100.89     LegendNANA
08:00 19.4 16.6 84 25 24   100.88     LegendNANA
09:00 21.0 17.2 79 25 26   100.94 26   LegendNANA
10:00 23.2 18.0 72 25 25   100.95 29   LegendNANA
11:00 24.8 18.0 66 26 25   101.01 31   LegendNANA
12:00 15.9 12.1 78 5 18   101.19     LegendNANA
13:00 15.7 11.9 78 5 25   101.25     LegendNANA
14:00 15.1 11.0 76 4 34   101.33     LegendNANA
15:00 14.3 10.2 76 3 39   101.39     LegendNANA
16:00 13.6 9.7 77 4 39   101.48     LegendNANA
17:00 13.1 8.8 75 4 40   101.57     LegendNANA
18:00 12.9 8.5 75 3 41   101.67     LegendNANA
19:00 12.7 7.5 71 3 34   101.76     LegendNANA
20:00 12.7 8.3 75 4 30   101.89     LegendNANA
21:00 12.4 8.6 77 4 25   101.92     LegendNANA
22:00 12.4 9.1 81 7 17   101.96     LegendNANA
23:00 12.0 8.4 79 8 14   101.93     LegendNANA

Notes on Data Quality.

Legend

  • E = Estimated
  • M = Missing
  • NA = Not Available
  • ‡ = Partner data that is not subject to review by the National Climate Archives
Date modified: